TimeCDT,TemperatureF,Dew PointF,Humidity,Sea Level PressureIn,VisibilityMPH,Wind Direction,Wind SpeedMPH,Gust SpeedMPH,PrecipitationIn,Events,Conditions,WindDirDegrees,DateUTC
12:53 AM,79.0,66.9,66,29.90,10.0,Calm,Calm,-,N/A,,Mostly Cloudy,0,2013-09-03 05:53:00
1:53 AM,77.0,66.9,71,29.90,10.0,South,3.5,-,N/A,,Clear,170,2013-09-03 06:53:00
2:53 AM,75.9,66.0,71,29.90,10.0,ENE,4.6,-,N/A,,Clear,60,2013-09-03 07:53:00
3:53 AM,75.0,66.9,76,29.90,10.0,ENE,6.9,-,N/A,,Clear,60,2013-09-03 08:53:00
4:53 AM,73.9,66.9,79,29.91,10.0,ENE,5.8,-,N/A,,Clear,70,2013-09-03 09:53:00
5:53 AM,73.0,66.9,81,29.91,10.0,ESE,4.6,-,N/A,,Clear,110,2013-09-03 10:53:00
6:53 AM,72.0,66.0,81,29.93,10.0,East,4.6,-,N/A,,Clear,90,2013-09-03 11:53:00
7:53 AM,72.0,66.9,84,29.94,10.0,ESE,3.5,-,N/A,,Clear,110,2013-09-03 12:53:00
8:53 AM,75.9,66.9,74,29.96,10.0,SSE,4.6,-,N/A,,Clear,160,2013-09-03 13:53:00
9:53 AM,80.1,66.0,62,29.98,10.0,South,3.5,-,N/A,,Clear,170,2013-09-03 14:53:00
10:53 AM,86.0,64.0,48,29.98,10.0,SE,6.9,-,N/A,,Clear,130,2013-09-03 15:53:00
11:53 AM,89.1,64.0,43,29.98,10.0,SE,6.9,-,N/A,,Clear,130,2013-09-03 16:53:00
12:53 PM,91.9,63.0,38,29.96,10.0,SE,4.6,-,N/A,,Clear,140,2013-09-03 17:53:00
1:53 PM,93.9,61.0,33,29.94,10.0,East,6.9,20.7,N/A,,Clear,90,2013-09-03 18:53:00
2:53 PM,95.0,59.0,30,29.91,10.0,Variable,3.5,-,N/A,,Clear,0,2013-09-03 19:53:00
3:53 PM,97.0,57.0,26,29.87,10.0,SSE,11.5,-,N/A,,Clear,150,2013-09-03 20:53:00
4:53 PM,98.1,57.9,26,29.85,10.0,SSE,13.8,19.6,N/A,,Clear,150,2013-09-03 21:53:00
5:53 PM,97.0,57.9,27,29.85,10.0,SSE,12.7,-,N/A,,Clear,150,2013-09-03 22:53:00
6:53 PM,96.1,59.0,29,29.84,10.0,SSE,11.5,-,N/A,,Clear,150,2013-09-03 23:53:00
7:53 PM,93.9,55.9,28,29.84,10.0,ESE,8.1,-,N/A,,Clear,120,2013-09-04 00:53:00
8:53 PM,90.0,57.9,34,29.86,10.0,ESE,4.6,-,N/A,,Clear,120,2013-09-04 01:53:00
9:53 PM,88.0,59.0,37,29.87,10.0,ESE,5.8,-,N/A,,Clear,120,2013-09-04 02:53:00
10:53 PM,86.0,61.0,43,29.88,10.0,SE,4.6,-,N/A,,Clear,130,2013-09-04 03:53:00
11:53 PM,84.0,62.1,47,29.88,10.0,Calm,Calm,-,N/A,,Clear,0,2013-09-04 04:53:00